Wetbulb
51.05 47.68 45.10 48.17 49.01 50.79 49.40 47.04 48.42 51.04 54.16 53.43 51.52 52.00 53.41 56.14 61.77 61.54 60.13 61.95 64.30 65.05 65.97 68.39 70.05 70.79 70.65 70.98 70.98 71.39 71.03 71.17 72.26 71.32 69.81 68.10 67.74 69.18 70.37 71.16 72.19 72.44 71.40 72.62
48.02 45.35 51.32 52.35 52.75 50.11 47.75 47.74 47.37 50.65 53.98 52.28 50.45 50.57 53.12 54.55 57.51 61.95 61.53 62.17 64.10 64.84 64.65 66.98 68.81 70.01 69.94 70.06 70.60 70.75 70.71 71.19 72.08 71.57 70.55 69.41 67.27 69.11 70.38 71.77 71.50 72.18 71.97 72.81
45.85 50.01 54.05 52.03 50.29 48.97 45.62 46.18 46.11 47.33 51.46 52.25 50.82 48.08 50.08 54.12 56.84 61.20 62.16 62.65 64.69 64.98 64.53 65.73 67.53 68.71 69.88 69.82 70.18 70.28 70.93 71.47 71.96 71.52 71.11 70.24 70.18 68.87 69.18 69.46 69.82 70.05 70.86 72.21
48.17 53.55 51.60 48.64 47.81 47.26 42.91 49.76 50.29 50.75 46.71 43.18 48.75 40.54 47.42 50.73 53.27 56.55 59.01 58.63 63.31 65.37 66.13 66.38 66.59 67.69 69.13 69.84 70.93 70.67 71.50 71.34 71.51 71.17 70.99 69.87 68.53 67.45 67.90 68.97 69.23 70.40 70.60 70.67
48.20 49.83 49.57 48.16 48.87 49.99 46.80 51.68 51.69 51.55 45.21 43.61 46.49 42.43 46.42 50.99 51.15 53.19 55.64 57.84 58.95 65.16 66.16 66.34 66.58 68.05 69.43 70.64 70.77 71.14 71.06 71.24 71.64 71.43 71.35 70.63 69.34 68.80 69.39 69.43 68.98 69.75 70.11 71.20
48.87 52.41 51.10 50.05 52.61 51.87 52.35 49.70 47.77 45.94 43.17 38.36 42.88 45.26 46.01 48.61 51.54 53.57 57.68 59.60 60.25 65.01 66.40 67.15 67.53 68.63 69.39 70.57 71.27 70.91 70.55 70.38 71.14 71.68 71.15 70.49 69.46 69.02 68.96 69.14 68.73 68.94 68.15 69.23
47.48 49.41 51.28 52.44 47.79 50.24 49.41 42.15 37.29 37.93 38.67 37.51 42.05 44.73 46.96 52.13 54.28 56.47 58.14 59.57 60.78 65.44 65.68 66.38 66.18 67.55 69.09 69.64 70.87 71.09 70.21 70.16 71.72 71.40 71.09 70.64 69.66 69.30 69.35 69.79 69.41 68.91 68.14 69.18
41.34 43.40 49.34 51.82 49.61 47.13 46.01 43.01 38.16 34.59 35.57 39.38 44.02 41.96 47.23 53.82 57.66 59.63 62.23 63.00 64.00 63.12 66.09 66.55 66.97 67.87 68.95 69.89 70.23 71.95 70.96 70.92 71.91 71.62 70.69 70.88 70.15 69.97 69.32 70.06 69.93 69.64 69.25 69.45
43.02 45.11 53.26 53.88 52.92 51.00 47.11 43.52 45.48 40.57 39.80 39.07 42.59 47.89 53.05 57.71 59.20 60.87 61.45 62.79 63.38 63.35 64.66 66.91 68.27 68.87 68.08 69.16 70.58 70.80 71.90 71.42 72.16 71.76 71.73 71.02 70.82 69.99 69.54 70.62 70.79 70.77 70.90 70.95
48.00 43.60 49.21 53.10 53.41 51.75 50.31 48.41 43.13 40.86 36.24 35.47 41.48 45.51 45.64 54.17 56.20 58.60 59.29 61.08 63.16 63.19 62.68 66.12 67.67 64.58 65.99 67.45 70.51 71.56 72.18 71.91 72.28 72.16 72.00 71.55 70.55 69.52 69.25 70.22 70.56 70.61 71.15 70.90
48.95 45.39 47.48 50.28 47.48 46.64 47.20 45.10 43.80 42.77 41.01 38.44 36.59 42.43 53.85 55.63 57.18 56.94 57.45 59.69 62.70 63.74 63.69 63.18 64.48 65.99 66.18 67.85 68.62 71.93 72.00 72.11 72.62 72.55 72.03 70.99 70.29 69.33 68.87 69.19 70.38 70.87 70.46 70.70
50.66 44.26 41.76 44.87 49.60 50.26 47.94 43.64 42.21 39.59 38.90 41.08 40.40 41.78 56.67 55.77 57.98 57.77 57.60 59.74 61.99 64.86 65.72 63.45 65.50 65.36 65.89 66.35 70.06 70.84 72.67 72.80 73.10 73.35 71.74 71.31 70.90 70.16 68.99 68.81 69.14 70.29 70.67 71.01
49.91 43.03 39.09 42.49 45.91 47.05 45.53 46.06 43.76 41.59 40.92 40.53 39.33 42.94 54.80 54.44 54.82 55.78 57.60 56.31 58.69 63.41 64.51 63.44 61.69 63.17 62.54 63.69 65.06 67.26 72.97 72.99 73.21 72.72 71.85 71.22 71.42 70.64 69.66 69.27 69.14 69.49 70.45 71.04
53.49 42.29 41.51 38.37 41.62 43.95 43.53 46.73 46.11 41.83 37.43 37.78 40.92 47.20 51.28 51.99 54.94 55.23 54.44 55.53 60.36 61.17 62.91 62.65 60.22 61.10 63.48 63.21 61.95 62.60 69.45 73.81 73.32 72.84 72.06 70.97 71.04 71.38 71.00 70.66 70.06 69.66 70.70 70.24
46.88 41.87 42.19 43.87 46.59 46.77 45.99 46.80 47.31 42.60 42.69 39.93 42.71 48.63 48.70 50.59 50.91 54.00 55.90 60.66 60.48 60.52 61.76 62.39 62.85 64.24 64.02 62.36 65.97 63.38 64.76 73.11 73.16 72.22 71.71 71.16 71.51 71.59 71.73 70.81 70.05 70.10 70.48 69.71
45.50 42.13 44.15 43.02 47.75 46.88 45.09 46.98 47.25 46.90 47.97 44.21 48.57 49.02 53.95 56.88 58.67 58.73 59.39 59.07 58.58 58.73 59.69 60.18 61.21 62.68 62.25 63.70 65.35 67.89 70.73 72.74 72.55 71.78 71.44 71.66 71.27 71.06 70.98 70.73 70.47 70.07 70.07 70.31
43.36 41.58 39.51 36.51 43.93 44.87 40.81 44.55 46.90 48.05 50.75 47.35 46.29 49.41 55.07 55.50 56.70 57.45 57.02 58.29 58.64 59.06 59.26 58.91 58.89 59.55 60.73 60.84 63.90 66.02 67.74 69.89 71.20 71.54 71.56 71.49 71.10 70.75 70.89 71.09 70.44 70.03 69.78 70.34
41.74 39.78 39.51 37.41 38.73 32.72 43.61 49.91 52.22 50.17 50.83 51.93 51.69 52.07 52.91 54.90 55.27 55.83 56.55 55.86 56.09 56.86 58.93 59.09 58.76 59.16 60.17 60.03 62.60 67.58 67.32 68.52 71.13 70.99 71.44 71.88 71.69 70.86 70.52 70.66 70.65 70.45 69.98 70.15
44.43 40.32 38.10 36.65 35.19 40.58 46.16 48.67 48.06 45.22 46.01 50.59 50.46 52.16 53.03 54.20 54.60 52.67 55.91 55.55 55.36 56.06 56.23 56.89 58.09 59.15 59.19 59.76 61.75 65.94 65.45 68.90 69.11 71.70 71.66 72.01 71.88 71.20 70.54 70.15 70.13 70.76 70.76 70.22
45.63 43.38 41.59 37.45 35.28 34.50 43.39 50.66 52.61 50.25 41.79 51.06 50.83 50.09 50.28 51.07 45.00 48.29 54.53 56.17 55.74 55.43 55.95 56.73 57.04 57.72 58.12 59.30 59.91 62.23 63.30 66.64 66.91 69.29 71.45 72.42 71.81 71.16 70.90 70.42 69.66 70.79 70.88 70.82
41.40 41.21 39.94 40.14 39.81 42.96 48.85 51.16 52.53 41.02 41.11 49.90 51.16 50.31 50.44 47.94 50.02 52.89 54.02 53.71 54.04 54.43 55.48 56.03 55.67 54.53 55.35 58.66 59.65 59.24 64.62 65.44 68.13 69.26 69.96 71.39 71.93 71.48 71.61 71.32 70.08 70.94 70.94 70.47
39.61 37.98 37.12 37.77 36.17 36.69 50.78 50.18 43.99 46.51 49.17 50.57 50.93 51.66 50.50 51.04 53.02 52.60 52.73 53.07 53.87 54.09 55.26 56.23 55.03 54.57 55.04 56.12 58.94 59.29 63.04 65.80 68.54 69.02 68.66 68.48 71.58 72.55 72.21 70.45 70.53 70.20 71.00 70.28
40.08 42.35 40.24 41.43 41.84 48.05 49.62 49.00 50.16 50.21 49.45 50.12 50.04 51.55 51.44 51.22 51.04 51.65 51.14 51.59 52.85 53.68 54.39 55.71 54.77 54.29 55.01 56.41 57.46 58.90 62.44 65.88 67.99 67.00 66.58 66.71 68.73 71.80 72.27 71.22 70.26 70.22 70.52 70.44
44.23 47.19 43.38 42.17 45.34 48.27 50.85 51.35 52.37 51.92 51.08 52.07 52.77 52.75 52.79 51.85 52.27 51.46 51.52 51.59 51.95 52.96 53.53 54.79 54.30 54.10 54.11 55.71 57.01 59.54 62.00 67.61 65.84 64.65 64.85 66.35 67.43 67.52 71.31 72.07 71.87 70.74 70.47 70.40
45.15 45.90 43.61 42.79 45.53 47.97 49.77 50.51 51.04 51.82 52.54 52.88 54.09 54.05 53.91 53.07 52.68 53.23 52.86 52.34 52.72 53.26 53.95 53.77 53.56 54.04 54.51 56.76 57.60 60.59 62.91 65.57 64.50 64.33 64.48 65.37 68.03 69.93 69.96 70.87 67.90 70.99 72.83 69.86
46.09 44.65 42.16 41.35 46.42 46.75 47.87 51.09 52.35 51.75 52.08 53.11 52.45 52.56 53.85 53.87 53.24 54.05 53.91 53.38 52.86 53.05 53.99 53.88 54.35 55.59 56.89 56.51 55.90 56.81 60.49 64.50 63.95 63.09 62.40 62.24 62.96 66.43 68.42 67.10 62.91 58.04 55.50 55.68
MSLP
1006.28 1006.97 1007.06 1006.60 1006.67 1006.53 1006.08 1005.13 1004.59 1003.69 1002.99 1003.45 1003.62 1003.54 1003.18 1003.25 1003.61 1004.03 1004.36 1004.71 1005.04 1005.06 1005.26 1005.98 1006.59 1007.46 1008.40 1009.27 1009.87 1010.46 1011.24 1011.82 1012.67 1013.57 1014.20 1014.80 1014.98 1014.90 1015.14 1015.15 1015.23 1015.42 1015.93 1016.03
1007.28 1007.21 1006.25 1005.84 1005.62 1005.87 1005.02 1004.92 1004.70 1004.06 1003.26 1003.74 1003.80 1003.57 1002.79 1002.60 1002.53 1002.28 1003.05 1003.94 1004.24 1004.93 1005.38 1005.90 1006.46 1007.10 1007.77 1008.66 1009.53 1010.30 1010.94 1011.64 1012.14 1012.82 1013.33 1013.98 1014.53 1014.84 1014.94 1014.92 1015.11 1015.14 1015.53 1015.62
1007.34 1005.99 1005.26 1005.60 1005.05 1004.81 1004.67 1004.73 1004.72 1004.66 1004.14 1003.91 1003.88 1003.85 1003.09 1001.70 1001.19 1001.20 1002.11 1002.42 1003.26 1003.94 1004.75 1005.62 1006.22 1006.63 1007.51 1008.41 1009.04 1009.80 1010.59 1011.30 1011.86 1012.31 1012.97 1013.73 1014.33 1014.85 1015.06 1015.14 1015.26 1015.29 1015.30 1015.44
1006.58 1004.91 1005.13 1004.70 1004.25 1004.19 1004.42 1004.16 1004.59 1004.77 1005.10 1005.18 1004.94 1005.25 1003.55 1002.24 1001.75 1001.47 1001.65 1002.41 1002.61 1003.40 1004.26 1005.06 1005.93 1006.54 1007.12 1007.83 1008.71 1009.41 1010.18 1010.93 1011.73 1012.06 1012.71 1013.16 1013.67 1014.38 1014.43 1014.35 1014.73 1015.03 1015.02 1015.30
1005.74 1005.22 1004.77 1004.32 1003.65 1003.64 1004.12 1004.15 1004.52 1005.06 1005.92 1006.17 1005.49 1005.94 1004.02 1003.01 1002.31 1001.66 1001.54 1001.58 1002.08 1002.60 1003.39 1004.28 1004.90 1005.63 1006.47 1007.54 1008.41 1009.12 1009.86 1010.76 1011.46 1012.03 1012.30 1012.72 1013.29 1013.57 1013.97 1014.32 1014.52 1014.72 1015.03 1015.00
1005.51 1004.56 1004.29 1003.48 1003.18 1003.21 1003.64 1004.35 1005.27 1006.33 1007.12 1007.44 1005.83 1006.01 1004.80 1003.69 1002.79 1001.99 1001.56 1001.81 1001.31 1002.22 1002.92 1003.68 1004.70 1006.02 1006.82 1007.66 1008.34 1009.11 1009.83 1010.43 1011.03 1011.65 1012.14 1012.41 1012.84 1013.25 1013.71 1014.02 1014.15 1014.31 1014.73 1014.92
1005.55 1004.44 1003.40 1003.15 1003.46 1003.44 1004.11 1006.03 1007.27 1008.56 1009.00 1008.40 1006.60 1006.10 1004.41 1003.01 1002.30 1002.18 1001.99 1002.12 1001.86 1002.26 1003.10 1004.18 1005.01 1005.97 1007.02 1007.76 1008.33 1008.92 1009.67 1010.40 1010.80 1011.15 1011.69 1012.05 1012.47 1012.77 1013.03 1013.34 1013.67 1014.05 1014.31 1014.34
1006.39 1004.71 1003.28 1002.85 1003.23 1003.91 1004.71 1006.07 1007.76 1009.06 1009.74 1008.44 1006.96 1005.87 1004.40 1003.25 1003.15 1003.14 1003.38 1003.28 1003.17 1003.30 1003.40 1003.62 1004.33 1006.37 1006.97 1007.86 1008.75 1009.23 1009.63 1010.05 1010.67 1010.92 1011.16 1011.58 1011.89 1012.27 1012.64 1012.76 1013.05 1013.29 1013.62 1013.73
1005.95 1005.05 1003.71 1003.34 1003.32 1003.86 1004.56 1005.69 1006.61 1008.19 1009.00 1008.89 1007.79 1006.00 1004.78 1005.22 1004.43 1004.36 1004.67 1004.34 1004.71 1004.46 1004.44 1005.67 1006.15 1007.10 1008.95 1009.34 1008.28 1008.86 1009.72 1009.89 1010.18 1010.52 1010.84 1011.16 1011.48 1011.83 1012.24 1012.34 1012.56 1012.87 1013.27 1013.59
1005.49 1005.45 1004.91 1004.17 1003.56 1004.23 1004.85 1005.64 1006.87 1008.51 1009.54 1009.80 1008.70 1007.42 1006.84 1006.50 1006.22 1005.82 1005.75 1005.94 1005.49 1005.77 1006.16 1006.61 1008.34 1009.99 1009.12 1009.78 1009.94 1009.35 1009.29 1009.46 1009.70 1010.14 1010.52 1010.80 1011.27 1011.43 1011.83 1012.18 1012.31 1012.57 1012.90 1013.23
1005.45 1006.26 1006.07 1005.12 1005.78 1005.88 1005.78 1006.79 1007.80 1008.84 1009.46 1009.83 1009.66 1008.78 1007.74 1007.48 1007.02 1006.15 1006.13 1006.77 1006.58 1006.62 1007.02 1007.57 1008.80 1007.92 1006.65 1008.94 1010.29 1010.06 1009.35 1009.49 1009.79 1009.97 1010.20 1010.58 1011.07 1011.35 1011.70 1012.00 1012.16 1012.33 1012.77 1013.07
1006.06 1007.17 1007.88 1007.54 1006.62 1006.51 1006.81 1007.70 1008.74 1010.00 1010.06 1009.93 1009.53 1009.22 1008.15 1007.77 1007.04 1006.35 1005.89 1006.16 1007.02 1007.30 1007.36 1007.60 1007.82 1008.95 1007.51 1008.39 1008.36 1009.20 1009.38 1008.99 1009.19 1009.44 1009.87 1010.11 1010.50 1010.98 1011.52 1011.80 1012.03 1012.46 1012.69 1012.67
1006.42 1008.07 1009.10 1008.48 1007.78 1007.39 1007.67 1008.08 1008.73 1009.64 1010.22 1010.30 1010.28 1009.05 1008.29 1007.72 1007.05 1006.58 1006.59 1006.44 1007.40 1007.76 1008.52 1009.08 1010.31 1010.30 1010.43 1008.63 1006.97 1008.31 1008.71 1008.71 1008.73 1008.92 1009.44 1009.66 1009.96 1010.31 1010.76 1011.31 1011.73 1012.28 1012.41 1012.43
1006.81 1009.03 1009.86 1010.16 1009.65 1009.15 1008.78 1008.47 1008.60 1009.52 1010.28 1010.46 1009.96 1008.70 1008.26 1007.51 1006.65 1006.64 1007.18 1007.47 1008.04 1008.59 1009.03 1009.27 1010.31 1011.34 1011.23 1010.56 1009.33 1009.27 1008.54 1008.39 1008.56 1008.83 1008.94 1009.18 1009.20 1009.42 1009.78 1010.55 1011.14 1011.62 1011.97 1012.19
1008.36 1009.83 1009.98 1009.98 1009.66 1009.21 1009.09 1008.95 1008.94 1009.43 1009.56 1009.91 1009.46 1008.80 1008.07 1007.81 1007.90 1007.42 1007.54 1007.87 1008.24 1008.73 1009.04 1009.40 1009.46 1010.18 1010.45 1009.93 1009.36 1008.63 1008.05 1008.06 1007.94 1008.23 1008.54 1008.52 1008.57 1008.72 1009.23 1009.84 1010.48 1011.10 1011.38 1011.64
1009.59 1010.27 1010.49 1010.58 1009.87 1009.55 1009.35 1008.97 1009.00 1009.13 1009.11 1009.03 1009.33 1009.36 1008.95 1008.35 1008.21 1008.24 1008.51 1008.30 1008.48 1008.74 1008.92 1009.02 1008.87 1008.96 1009.60 1009.00 1008.34 1007.81 1007.49 1007.31 1007.40 1007.52 1007.67 1007.92 1008.28 1008.43 1008.62 1009.08 1009.75 1010.28 1010.77 1011.05
1010.09 1010.74 1011.52 1011.36 1010.57 1010.15 1009.96 1009.18 1009.13 1009.79 1009.66 1009.40 1010.05 1010.44 1009.81 1009.53 1009.28 1009.53 1009.48 1009.07 1009.00 1008.79 1008.55 1008.61 1008.85 1008.83 1008.36 1008.41 1008.44 1008.56 1008.23 1007.58 1007.56 1007.39 1007.15 1007.39 1007.66 1007.98 1008.10 1008.28 1008.88 1009.57 1010.02 1010.41
1010.10 1011.13 1011.73 1012.13 1011.56 1011.23 1010.08 1009.72 1009.63 1010.51 1011.04 1010.82 1010.98 1011.01 1011.02 1010.94 1010.66 1010.45 1010.42 1010.24 1009.94 1009.73 1009.29 1009.26 1009.18 1009.03 1008.51 1007.88 1007.62 1007.88 1007.31 1007.05 1007.01 1006.83 1007.00 1006.97 1007.17 1007.38 1007.58 1007.93 1008.22 1008.81 1009.22 1009.66
1009.20 1010.85 1012.14 1012.65 1012.45 1011.45 1010.48 1010.60 1010.83 1011.22 1012.53 1012.32 1012.08 1012.03 1011.83 1011.54 1011.31 1011.05 1010.67 1010.39 1010.17 1009.80 1009.30 1008.88 1008.65 1008.58 1008.36 1008.18 1007.78 1007.66 1007.37 1007.26 1006.97 1006.24 1006.05 1006.02 1006.34 1006.52 1006.91 1007.42 1007.73 1008.03 1008.52 1009.01
1010.11 1010.98 1011.97 1013.05 1012.99 1012.26 1011.60 1011.04 1010.43 1010.61 1012.54 1012.94 1012.71 1012.87 1012.87 1012.47 1012.52 1012.10 1011.45 1011.03 1010.29 1009.60 1009.51 1009.13 1008.53 1008.35 1008.18 1008.00 1008.01 1007.83 1007.51 1007.29 1006.92 1006.45 1006.15 1005.84 1005.80 1006.23 1006.46 1006.92 1006.97 1007.08 1007.51 1008.08
1011.77 1012.31 1012.96 1013.14 1013.09 1012.38 1012.14 1011.45 1010.59 1011.79 1013.20 1012.89 1013.03 1013.19 1013.16 1013.39 1013.10 1012.27 1011.77 1011.26 1010.87 1010.39 1010.20 1009.54 1009.06 1008.74 1008.47 1007.93 1007.81 1007.85 1007.44 1007.25 1006.74 1006.44 1005.99 1005.51 1005.22 1005.44 1005.67 1005.81 1006.24 1006.54 1006.89 1007.37
1012.96 1013.52 1013.92 1014.00 1013.90 1013.62 1012.62 1012.20 1012.73 1013.58 1013.17 1013.14 1013.00 1012.98 1013.01 1012.81 1012.17 1011.75 1011.09 1010.93 1010.39 1009.98 1009.61 1009.39 1009.24 1009.02 1008.33 1007.88 1007.62 1007.46 1007.15 1006.49 1006.26 1006.13 1006.00 1005.67 1005.10 1004.81 1005.27 1005.36 1005.41 1005.50 1006.18 1006.68
1013.64 1013.84 1014.16 1014.78 1014.74 1014.27 1013.85 1013.57 1013.57 1013.67 1013.62 1013.27 1013.12 1012.66 1012.41 1012.16 1011.75 1011.27 1010.88 1010.49 1009.96 1009.52 1009.24 1008.98 1008.85 1008.79 1008.31 1007.71 1007.41 1007.20 1006.55 1006.18 1005.92 1005.85 1005.75 1005.38 1005.04 1004.11 1004.03 1005.01 1004.83 1005.20 1005.26 1005.89
1013.91 1013.86 1014.71 1015.03 1015.07 1014.68 1014.14 1013.70 1013.48 1013.39 1013.39 1013.02 1012.63 1012.19 1011.83 1011.44 1011.07 1010.72 1010.36 1009.93 1009.53 1009.01 1008.78 1008.55 1008.45 1008.35 1008.11 1007.52 1007.02 1006.65 1006.24 1005.85 1005.56 1005.41 1005.26 1005.17 1004.83 1004.41 1003.60 1003.66 1004.44 1004.27 1004.55 1004.89
1014.54 1014.61 1015.23 1015.39 1015.03 1014.57 1013.78 1013.61 1013.32 1013.05 1012.81 1012.44 1011.88 1011.46 1011.02 1010.61 1010.26 1010.04 1009.76 1009.35 1008.82 1008.38 1008.21 1008.20 1008.05 1007.77 1007.53 1007.02 1006.61 1006.29 1006.08 1005.56 1005.08 1004.89 1004.76 1004.61 1004.43 1003.91 1003.41 1002.57 1003.95 1004.07 1003.71 1004.17
1014.71 1014.92 1015.33 1015.49 1015.07 1014.95 1014.01 1013.11 1012.76 1012.55 1012.06 1011.63 1011.29 1010.72 1010.18 1009.85 1009.39 1009.12 1008.79 1008.50 1008.20 1007.89 1007.56 1007.45 1007.31 1007.13 1006.80 1006.36 1006.08 1005.67 1005.39 1005.22 1004.82 1004.46 1004.31 1004.32 1004.29 1003.99 1003.36 1003.18 1004.16 1004.37 1004.79 1005.23
Wind_Speed
4 2 7 12 7 7 9 1 3 5 7 8 6 7 10 6 13 12 9 10 17 18 11 16 20 19 17 15 15 16 14 10 10 5 5 3 4 3 1 3 6 6 5 6
5 6 15 9 12 7 4 2 6 7 9 3 5 9 8 5 9 19 17 14 17 14 8 14 19 19 19 19 17 16 14 12 11 7 4 4 4 3 4 3 4 6 6 5
5 13 7 5 11 3 4 2 4 6 5 4 3 11 7 14 5 11 13 20 16 20 16 17 19 20 19 19 19 16 15 15 11 9 5 4 4 3 3 3 3 4 6 6
7 16 6 5 2 6 1 7 3 4 5 3 4 7 9 9 3 9 12 9 16 18 15 16 17 17 19 17 16 16 14 14 10 10 8 7 6 5 4 5 4 5 6 5
15 8 9 6 3 2 9 3 2 2 4 5 4 3 10 7 4 6 6 7 12 17 20 21 20 20 18 17 16 14 13 13 11 11 10 8 6 4 3 3 6 5 5 5
9 5 5 6 3 3 3 3 9 6 4 4 4 5 7 4 1 5 3 3 8 17 19 20 16 12 13 12 13 13 13 13 12 12 10 12 12 8 5 5 6 6 4 4
8 10 9 5 1 7 7 8 5 7 6 7 4 4 10 9 8 7 6 7 3 13 15 15 17 15 14 15 13 12 14 13 12 13 12 12 11 10 10 9 7 7 6 3
2 12 5 5 9 8 5 8 7 2 3 7 6 2 7 7 9 16 14 16 17 2 13 19 18 8 15 16 14 13 14 13 13 13 13 10 9 6 5 8 7 7 6 5
3 4 6 9 3 8 5 3 7 6 1 4 4 6 8 12 16 17 16 22 18 14 10 11 17 13 4 6 15 16 14 13 13 12 10 9 7 7 7 8 8 6 6 5
4 3 2 3 7 4 4 4 4 4 1 2 6 2 4 5 7 8 11 15 17 13 13 12 15 4 10 12 9 10 13 14 13 10 9 7 8 7 6 6 7 7 6 5
3 4 9 6 5 5 8 7 6 4 4 5 3 4 4 4 3 6 4 6 11 10 5 5 5 4 12 9 9 8 11 11 10 10 8 8 8 7 7 8 7 5 5 5
3 6 2 3 4 4 7 2 4 5 9 2 4 5 4 5 3 4 4 7 8 14 8 5 10 8 8 9 8 9 12 12 13 12 9 9 10 9 8 8 7 5 5 6
1 3 4 11 10 7 6 5 3 3 2 2 2 6 3 8 6 4 5 3 9 11 14 11 11 13 14 16 9 6 11 12 13 12 12 9 10 11 10 10 8 8 7 8
10 3 7 7 7 4 5 7 5 5 3 3 5 5 7 9 8 7 4 7 9 8 13 15 9 7 11 10 7 8 5 11 11 12 12 11 12 12 12 10 10 11 10 9
6 3 5 6 7 4 3 5 8 4 7 3 6 10 7 6 1 3 6 8 8 8 8 7 9 10 9 8 9 10 9 11 13 12 12 13 13 11 10 10 9 10 10 10
4 2 2 3 4 6 4 7 6 6 10 2 5 5 5 3 6 9 8 8 8 7 5 5 7 6 1 4 8 8 5 12 11 13 14 13 12 10 10 10 10 10 11 11
1 4 3 4 5 5 6 5 8 4 10 2 6 4 5 9 12 8 8 8 8 7 7 7 5 5 8 5 2 3 3 5 7 11 12 13 13 11 11 11 10 11 11 10
6 5 5 4 3 2 10 7 12 16 14 11 9 9 7 5 4 6 4 5 6 6 7 7 5 3 5 7 8 6 6 6 6 10 11 12 13 13 10 11 12 11 9 11
8 6 2 4 4 5 3 6 3 1 5 10 8 10 8 5 4 7 8 7 4 7 8 6 3 1 5 6 6 5 8 6 7 10 14 14 14 14 12 13 13 10 10 8
8 5 6 2 3 5 3 4 6 1 3 0 6 4 5 8 4 5 8 7 7 8 6 6 9 7 7 8 6 6 7 7 7 6 10 10 10 12 13 14 11 11 9 9
5 4 3 1 2 0 5 7 3 1 5 3 3 2 1 2 7 8 8 7 5 5 8 9 9 8 8 7 6 7 5 7 6 6 6 8 9 12 13 13 10 10 9 9
1 2 2 2 1 4 8 5 4 5 5 4 4 3 4 5 8 8 7 7 7 7 7 7 5 8 11 8 6 8 7 5 5 6 5 7 9 9 9 13 11 12 11 12
4 4 3 3 5 3 5 5 1 1 3 4 5 8 7 8 7 8 8 9 8 8 7 6 5 7 8 8 7 8 9 6 3 5 6 6 7 11 12 12 13 10 13 11
5 5 4 3 4 4 5 2 0 3 6 10 11 11 10 13 10 9 9 9 8 7 7 6 7 7 7 7 8 10 11 7 4 6 6 5 8 9 12 8 10 10 11 12
4 4 0 3 3 8 3 6 6 8 9 13 12 11 11 9 9 10 11 12 9 8 7 6 7 8 8 7 7 8 10 7 6 5 5 5 7 10 9 5 2 6 8 9
1 5 3 5 6 6 10 11 13 12 14 10 9 14 16 15 14 13 13 11 9 9 8 7 8 7 9 8 8 9 7 8 7 6 3 4 4 6 4 2 3 6 3 10
Wind_Direction
303 20 245 255 193 235 254 296 340 286 278 177 234 280 274 203 211 209 204 198 184 189 182 174 174 174 170 176 175 180 181 168 159 151 149 159 173 138 91 184 203 168 191 185
351 244 251 259 278 239 72 18 300 313 291 123 292 282 284 273 219 201 195 195 192 177 164 169 171 172 172 177 180 179 184 170 171 164 160 145 154 172 149 178 161 163 166 168
203 251 292 233 275 263 348 237 257 247 316 307 11 318 331 297 260 181 193 198 186 180 181 175 177 177 174 178 179 179 180 175 172 169 134 93 96 69 118 184 161 185 179 180
233 262 236 278 224 130 193 267 292 315 37 288 92 289 308 313 274 178 198 180 188 185 182 174 170 180 179 181 177 177 176 169 173 159 168 154 173 162 200 184 160 189 193 199
271 293 310 312 249 59 242 267 273 334 12 10 311 55 274 26 284 244 202 221 177 184 175 180 180 181 179 171 179 174 167 166 168 177 177 171 174 156 150 151 165 173 197 214
243 251 210 226 264 159 240 337 22 33 72 360 243 140 302 286 256 295 190 250 167 174 178 178 173 161 168 169 172 169 169 175 169 179 185 185 178 165 159 167 181 185 190 200
332 282 274 164 242 342 50 55 347 354 8 227 340 81 228 277 263 236 159 51 150 161 163 161 166 160 165 172 171 171 175 181 177 180 189 192 183 174 184 180 178 179 204 200
211 317 342 165 181 194 206 146 155 239 267 272 303 43 282 16 32 64 49 53 35 272 168 175 175 121 165 169 177 175 179 179 181 178 187 184 182 179 181 185 179 195 198 195
168 280 322 57 340 125 274 304 187 135 103 46 273 302 24 23 43 57 56 53 44 30 92 111 115 107 98 267 184 182 182 181 182 185 176 182 175 172 178 193 183 176 185 199
232 350 0 301 28 20 93 235 2 7 10 302 305 246 263 44 22 40 45 71 69 61 52 94 89 40 68 17 303 217 184 181 183 183 184 176 173 180 169 171 187 174 189 196
106 99 298 44 45 334 351 18 4 126 131 170 205 250 210 175 223 83 44 72 93 101 130 173 141 126 88 11 334 244 191 179 184 185 186 171 167 181 171 180 196 202 139 171
324 125 47 260 270 225 132 105 111 99 299 243 164 267 190 279 157 120 32 66 80 90 95 78 123 89 154 190 211 234 206 186 187 189 185 189 164 176 176 184 186 158 180 187
287 38 31 345 350 3 48 356 108 152 54 354 74 259 192 230 169 155 165 74 68 78 100 98 93 141 251 233 197 207 207 206 189 182 188 186 182 176 186 189 180 173 186 198
75 86 144 186 224 215 319 334 355 113 100 226 225 242 249 257 192 210 43 28 80 88 106 127 128 192 237 266 296 253 269 214 204 190 188 194 197 189 185 184 187 180 187 195
88 152 179 215 235 330 327 348 336 350 246 174 247 227 271 291 45 98 107 99 90 80 64 86 147 169 226 255 279 232 236 228 202 191 190 197 205 198 182 178 179 187 181 186
7 279 52 333 332 355 339 320 336 326 337 16 118 49 288 6 85 65 71 77 71 68 79 62 42 75 162 10 349 358 249 216 201 191 196 192 198 199 191 187 182 179 193 188
174 127 71 265 303 5 344 282 291 74 27 256 66 6 338 36 50 43 31 37 28 16 40 51 47 9 343 2 13 330 321 288 225 224 202 194 198 199 198 198 181 190 191 191
178 134 137 217 48 330 239 19 87 84 35 37 54 39 28 15 59 76 35 22 4 6 16 358 345 329 326 344 6 331 332 330 275 220 216 206 198 203 199 199 200 193 190 196
172 121 114 148 180 275 26 16 350 345 55 22 34 17 6 355 347 7 1 350 349 336 337 319 330 309 335 337 339 343 334 324 328 244 218 210 202 203 200 203 202 193 185 189
66 80 121 118 163 230 230 287 290 195 143 51 78 49 28 352 16 281 316 321 335 336 327 321 326 332 344 328 332 345 329 321 326 336 273 234 210 200 200 206 205 195 188 188
356 3 129 127 243 46 350 313 324 254 248 297 132 167 305 232 206 248 292 309 299 300 302 315 321 304 285 293 311 304 308 299 299 279 298 239 211 201 206 200 196 196 190 178
156 95 294 28 249 237 330 25 87 244 326 336 347 322 296 260 272 271 286 280 298 311 319 321 325 308 306 308 319 292 282 271 290 311 319 301 257 211 194 208 192 189 189 194
23 165 190 127 197 233 321 96 105 199 257 292 286 292 270 268 267 274 271 273 270 274 277 290 291 292 294 298 296 286 269 273 283 309 310 302 291 288 243 197 212 194 197 198
343 30 73 65 216 222 208 251 274 314 275 286 278 273 272 275 271 263 267 267 262 264 274 265 279 282 283 286 291 286 277 249 260 283 288 293 295 275 263 210 211 205 199 199
216 65 110 269 306 315 220 288 284 280 285 288 278 272 278 274 275 280 281 260 247 248 250 256 260 267 266 283 294 302 295 261 252 267 279 296 293 286 276 244 267 247 216 222
161 178 133 234 228 206 268 288 292 292 291 285 280 284 279 272 272 272 271 263 253 257 254 250 252 255 268 271 280 288 294 272 254 259 261 277 297 317 318 79 93 83 350 342